Weather History for KPIH - May, 2012

Change the Weather History Date:

Friday, May 18, 2012

  Actual Average Record
Temperature  
Mean Temperature 56 °F 54 °F  
Max Temperature 65 °F 69 °F 91 °F (2009)
Min Temperature 47 °F 40 °F 29 °F (2003)
Degree Days  
Heating Degree Days 9 11  
Month to date heating degree days 208 236  
Since 1 July heating degree days 6366 6930  
Cooling Degree Days 0 0  
Month to date cooling degree days 1 0  
Year to date cooling degree days 1 0  
Growing Degree Days 5 (Base 50)    
Moisture  
Dew Point 32 °F    
Average Humidity 45    
Maximum Humidity 61    
Minimum Humidity 28    
Precipitation  
Precipitation 0.00 in 0.04 in 0.86 in (1978)
Month to date precipitation T 0.84  
Year to date precipitation 4.29 5.21  
Snow  
Snow 0.00 in - - ()
Month to date snowfall 0.0  
Since 1 July snowfall 15.8  
Snow Depth 0.00 in    
Sea Level Pressure  
Sea Level Pressure 29.80 in    
Wind  
Wind Speed 14 mph (SW)    
Max Wind Speed 23 mph    
Max Gust Speed 29 mph    
Visibility 10 miles    
Events      
T = Trace of Precipitation, MM = Missing Value Source: NWS Daily Summary

Daily Weather History Graph

Daily Weather History Graph

Search for Another Location

Airport or City:

Trip Planner

Search our weather history database for the weather conditions in past years. The results will help you decide how hot, cold, wet, or windy it might be!

Date:

Astronomy

May. 18, 2012 Rise Set
Actual Time 6:03 AM MDT 8:50 PM MDT
Civil Twilight 5:30 AM MDT 9:23 PM MDT
Nautical Twilight 4:49 AM MDT 10:05 PM MDT
Astronomical Twilight 4:01 AM MDT 10:53 PM MDT
Moon 4:37 AM MDT (5/18) 7:01 PM MDT (5/18)
Length of Visible Light 15h 52m
Length of Day
14h 46m
Waning Crescent, 4% of the Moon is Illuminated
May 18
Waning Crescent
May 20
New
May 28
First Quarter
Jun 4
Full
Jun 11
Last Quarter

Hourly Weather History & Observations

Time (MDT) Temp. Dew Point Humidity Pressure Visibility Wind Dir Wind Speed Gust Speed Precip Events Conditions
12:53 AM 54.0 °F 35.1 °F 49% 29.68 in 10.0 mi SW 19.6 mph 27.6 mph N/A   Scattered Clouds
1:53 AM 52.0 °F 36.0 °F 54% 29.70 in 10.0 mi SW 18.4 mph 23.0 mph N/A   Mostly Cloudy
2:53 AM 48.9 °F 36.0 °F 61% 29.71 in 10.0 mi SW 21.9 mph 28.8 mph N/A   Clear
3:53 AM 48.9 °F 36.0 °F 61% 29.69 in 10.0 mi SW 20.7 mph 28.8 mph N/A   Clear
4:53 AM 48.9 °F 36.0 °F 61% 29.70 in 10.0 mi SW 15.0 mph - N/A   Clear
5:53 AM 48.9 °F 35.1 °F 59% 29.71 in 10.0 mi SW 11.5 mph - N/A   Mostly Cloudy
6:53 AM 48.9 °F 35.1 °F 59% 29.72 in 10.0 mi WSW 17.3 mph 20.7 mph N/A   Mostly Cloudy
7:53 AM 48.2 °F 35.6 °F 62% 29.83 in 10.0 mi SW 19.6 mph 24.2 mph N/A   Scattered Clouds
8:53 AM 48.9 °F 35.1 °F 59% 29.76 in 10.0 mi WSW 18.4 mph - N/A   Scattered Clouds
9:53 AM 48.9 °F 30.9 °F 50% 29.79 in 10.0 mi SW 19.6 mph - N/A   Scattered Clouds
10:53 AM 51.1 °F 30.0 °F 44% 29.81 in 10.0 mi WSW 18.4 mph - N/A   Partly Cloudy
11:53 AM 52.0 °F 30.0 °F 43% 29.83 in 10.0 mi SW 16.1 mph 20.7 mph N/A   Clear
12:53 PM 55.9 °F 33.1 °F 42% 29.82 in 10.0 mi SW 13.8 mph 21.9 mph N/A   Partly Cloudy
1:53 PM 60.1 °F 34.0 °F 38% 29.81 in 10.0 mi WSW 13.8 mph 21.9 mph N/A   Partly Cloudy
2:53 PM 60.1 °F 35.1 °F 39% 29.81 in 10.0 mi West 8.1 mph 16.1 mph N/A   Scattered Clouds
3:53 PM 60.1 °F 34.0 °F 38% 29.82 in 10.0 mi Variable 3.5 mph - N/A   Mostly Cloudy
4:53 PM 63.0 °F 34.0 °F 34% 29.81 in 10.0 mi West 11.5 mph - N/A   Mostly Cloudy
5:53 PM 64.9 °F 35.1 °F 33% 29.80 in 10.0 mi West 9.2 mph - N/A   Mostly Cloudy
6:53 PM 62.1 °F 35.1 °F 37% 29.81 in 10.0 mi WNW 9.2 mph - N/A   Scattered Clouds
7:53 PM 61.0 °F 30.0 °F 31% 29.84 in 10.0 mi WSW 15.0 mph - N/A   Mostly Cloudy
8:53 PM 57.0 °F 28.0 °F 33% 29.87 in 10.0 mi WSW 15.0 mph - N/A   Mostly Cloudy
9:53 PM 54.0 °F 26.1 °F 34% 29.91 in 10.0 mi SW 13.8 mph - N/A   Mostly Cloudy
10:53 PM 52.0 °F 23.0 °F 32% 29.94 in 10.0 mi SSW 12.7 mph - N/A   Overcast
11:53 PM 53.1 °F 21.0 °F 29% 29.94 in 10.0 mi SSW 12.7 mph - N/A   Overcast